Evansville, IN

3:35 AM CST on February 10, 2016 (GMT -0600)
Evansville Regional

Weather History for KEVV - August, 2014

Change the Weather History Date:

Thursday, August 28, 2014

  Actual Average Record
Temperature  
Mean Temperature 83 °F 75 °F  
Max Temperature 92 °F 87 °F 102 °F (1936)
Min Temperature 73 °F 64 °F 48 °F (1986)
Degree Days  
Heating Degree Days 0 0  
Month to date heating degree days 0 0  
Since 1 June heating degree days 0 6  
Since 1 July heating degree days 0 0  
Cooling Degree Days 18 10  
Month to date cooling degree days 371 331  
Year to date cooling degree days 1239 1167  
Since 1 June cooling degree days 1028 1032  
Growing Degree Days 32 (Base 50)    
Moisture  
Dew Point 71 °F    
Average Humidity 73    
Maximum Humidity 93    
Minimum Humidity 52    
Precipitation  
Precipitation 0.26 in 0.10 in 2.50 in (1981)
Month to date precipitation 4.23 2.70  
Year to date precipitation 33.61 30.64  
Snow  
Snow 0.00 in 0.00 in - ()
Month to date snowfall 0.0 0.0  
Since 1 June snowfall 0.0 0.0  
Since 1 July snowfall 0.0 0.0  
Snow Depth 0.00 in    
Sea Level Pressure  
Sea Level Pressure 30.01 in    
Wind  
Wind Speed 4 mph (NE)    
Max Wind Speed 29 mph    
Max Gust Speed 36 mph    
Visibility 9 miles    
Events Rain , Thunderstorm    
T = Trace of Precipitation, MM = Missing Value Source: NWS Daily Summary

Daily Weather History Graph

Daily Weather History Graph

Search for Another Location

Airport or City:

Trip Planner

Search our weather history database for the weather conditions in past years. The results will help you decide how hot, cold, wet, or windy it might be!

Date:

Astronomy

Aug. 28, 2014 Rise Set
Actual Time 6:16 AM CDT 7:25 PM CDT
Civil Twilight 5:49 AM CDT 7:52 PM CDT
Nautical Twilight 5:16 AM CDT 8:24 PM CDT
Astronomical Twilight 4:43 AM CDT 8:58 PM CDT
Moon 9:05 AM CDT (8/28) 8:53 PM CDT (8/28)
Length of Visible Light 14h 03m
Length of Day
13h 09m
Waxing Crescent, 9% of the Moon is Illuminated
Aug 28
Waxing Crescent
Sep 2
First Quarter
Sep 8
Full
Sep 15
Last Quarter
Sep 24
New

Hourly Weather History & Observations

Time (CDT) Temp. Heat Index Dew Point Humidity Pressure Visibility Wind Dir Wind Speed Gust Speed Precip Events Conditions
12:54 AM 77.0 °F - 71.1 °F 82% 30.04 in 10.0 mi Calm Calm - N/A   Clear
1:54 AM 75.9 °F - 71.1 °F 85% 30.03 in 10.0 mi Calm Calm - N/A   Clear
2:54 AM 75.0 °F - 71.1 °F 87% 30.02 in 10.0 mi NE 3.5 mph - N/A   Clear
3:54 AM 75.0 °F - 71.1 °F 87% 30.02 in 10.0 mi Calm Calm - N/A   Clear
4:54 AM 73.9 °F - 71.1 °F 91% 30.03 in 8.0 mi NNE 3.5 mph - N/A   Clear
5:54 AM 73.9 °F - 71.1 °F 91% 30.03 in 7.0 mi NE 5.8 mph - N/A   Clear
6:54 AM 75.0 °F - 71.1 °F 87% 30.04 in 5.0 mi NE 4.6 mph - N/A   Clear
7:54 AM 77.0 °F - 72.0 °F 84% 30.04 in 7.0 mi ENE 6.9 mph - N/A   Clear
8:54 AM 79.0 °F - 72.0 °F 79% 30.04 in 8.0 mi East 3.5 mph - N/A   Clear
9:54 AM 82.0 °F 87.4 °F 73.0 °F 74% 30.04 in 9.0 mi Calm Calm - N/A   Clear
10:54 AM 86.0 °F 93.8 °F 73.9 °F 67% 30.04 in 9.0 mi East 3.5 mph - N/A   Clear
11:54 AM 88.0 °F 95.6 °F 73.0 °F 61% 30.03 in 9.0 mi Calm Calm - N/A   Mostly Cloudy
12:45 PM 89.1 °F 97.0 °F 73.0 °F 59% 30.03 in 10.0 mi Calm Calm - N/A Thunderstorm Thunderstorm
12:54 PM 89.1 °F 96.0 °F 72.0 °F 57% 30.01 in 10.0 mi ESE 3.5 mph - N/A Thunderstorm Thunderstorm
1:13 PM 89.1 °F 96.0 °F 72.0 °F 57% 30.02 in 10.0 mi East 6.9 mph - N/A   Mostly Cloudy
1:54 PM 88.0 °F 95.6 °F 73.0 °F 61% 29.99 in 10.0 mi SSE 6.9 mph - 0.00 in   Mostly Cloudy
2:54 PM 91.0 °F 98.2 °F 72.0 °F 53% 29.97 in 10.0 mi Variable 6.9 mph - N/A   Partly Cloudy
3:54 PM 90.0 °F 96.4 °F 71.1 °F 54% 29.96 in 10.0 mi ENE 5.8 mph - N/A   Scattered Clouds
4:51 PM 89.6 °F 96.2 °F 71.6 °F 55% 29.97 in 10.0 mi NE 5.8 mph - N/A Thunderstorm Thunderstorm
4:54 PM 89.1 °F 96.0 °F 72.0 °F 57% 29.96 in 10.0 mi East 3.5 mph - N/A Thunderstorm Thunderstorm
5:20 PM 89.6 °F 96.2 °F 71.6 °F 55% 29.98 in 10.0 mi Calm Calm - N/A Thunderstorm Partly Cloudy
5:54 PM 84.9 °F 90.7 °F 72.0 °F 65% 29.98 in 10.0 mi WSW 5.8 mph - N/A   Partly Cloudy
6:06 PM 84.0 °F 90.2 °F 73.0 °F 69% 29.99 in 10.0 mi West 8.1 mph - N/A Thunderstorm Partly Cloudy
6:30 PM 82.0 °F 85.9 °F 70.0 °F 67% 30.00 in 10.0 mi WSW 3.5 mph - N/A Thunderstorm Thunderstorm
6:54 PM 73.0 °F - 69.1 °F 87% 29.99 in 2.0 mi SW 25.3 mph 35.7 mph 0.04 in Rain , Thunderstorm Heavy Thunderstorms and Rain
7:09 PM 73.0 °F - 69.1 °F 87% 30.00 in 4.0 mi WSW 16.1 mph - 0.08 in Rain , Thunderstorm Heavy Thunderstorms and Rain
7:37 PM 73.9 °F - 69.1 °F 85% 30.02 in 10.0 mi NW 8.1 mph - 0.15 in Rain , Thunderstorm Light Rain
7:54 PM 73.9 °F - 70.0 °F 87% 30.01 in 10.0 mi North 5.8 mph - 0.15 in Rain Light Rain
8:54 PM 73.9 °F - 71.1 °F 91% 30.02 in 8.0 mi North 3.5 mph - 0.06 in Rain Light Rain
9:54 PM 75.0 °F - 71.1 °F 87% 30.01 in 10.0 mi ENE 3.5 mph - 0.01 in   Mostly Cloudy
10:54 PM 75.0 °F - 71.1 °F 87% 30.01 in 10.0 mi Calm Calm - N/A   Clear
11:54 PM 73.9 °F - 72.0 °F 93% 30.00 in 10.0 mi Calm Calm - N/A   Clear